ECMWFFLT1_850_spd_009.txt.gz
Wind_Speed
32 30 29 30 30 28 26 24 22 20 18 16 14 12 10 9 10 10 10 11 11 11 12 14 15 15 15 15 15 15 14 12 11 11 12 13 15 16 17 19 20 20 20 19 18 18 18 18 18 18 19 19 20 20 20 19 18 18 18 18 19 20 20
32 32 32 32 32 29 27 24 22 21 18 15 14 12 10 10 10 10 10 11 10 11 13 14 14 14 15 15 15 15 14 11 10 11 11 12 14 15 17 18 19 20 19 19 18 16 15 16 17 17 18 19 20 20 21 21 20 19 19 19 19 20 21
33 34 35 35 33 31 28 25 23 21 18 16 13 10 9 10 10 9 10 10 10 12 13 13 14 14 15 15 15 15 14 12 11 11 11 12 13 15 16 17 18 18 18 18 17 16 15 15 15 16 17 18 19 20 20 20 20 20 20 20 21 22 22
35 36 36 36 33 31 29 26 24 21 18 16 12 9 9 10 9 9 9 10 11 13 13 13 13 13 14 15 14 14 14 12 12 12 12 13 14 15 15 16 16 16 16 16 16 16 16 16 16 16 16 17 18 19 19 20 20 20 20 21 22 23 24
37 37 36 37 34 32 30 27 24 21 18 15 11 9 10 10 9 8 9 11 13 13 13 13 13 13 14 14 14 14 13 12 13 12 12 14 15 16 16 16 14 14 14 15 16 17 17 17 17 17 16 16 17 18 19 20 21 21 21 21 21 22 23
37 38 38 39 36 33 31 27 23 21 17 14 11 10 11 10 9 9 10 12 13 13 13 12 13 13 13 13 13 13 13 12 13 12 12 14 15 16 17 16 14 12 13 14 15 17 18 17 16 16 16 17 18 19 20 21 21 21 21 21 21 21 22
36 40 40 39 38 34 31 27 24 20 17 14 12 12 12 11 9 10 11 12 13 13 13 12 12 13 13 13 13 12 12 12 12 11 11 13 14 15 16 15 13 12 13 14 15 16 16 16 15 15 16 18 19 21 21 21 20 20 21 21 22 22 22
34 39 40 39 37 34 30 27 24 21 18 16 14 14 13 11 10 10 11 12 13 13 12 12 12 13 13 13 12 12 12 12 12 10 11 12 13 14 15 15 14 13 14 14 15 15 15 15 15 15 16 18 20 21 21 20 20 20 20 21 22 21 21
31 35 37 37 35 33 30 27 23 21 18 17 16 15 13 11 10 10 10 12 12 12 11 12 12 12 12 12 11 11 12 12 11 10 11 12 12 13 14 15 15 15 15 15 16 16 15 14 15 16 17 18 20 21 20 19 19 19 20 21 22 22 22
29 33 34 34 34 32 29 26 24 22 19 18 17 15 13 12 10 9 10 11 12 11 11 12 12 12 12 12 11 11 11 12 11 10 10 11 12 13 14 15 16 16 16 17 17 16 16 15 15 16 17 18 20 21 19 18 19 19 19 20 21 22 24
30 31 33 33 33 32 29 28 26 22 20 19 17 15 13 11 9 8 8 9 10 11 11 12 12 12 12 12 12 11 11 11 10 10 10 11 12 13 14 15 16 17 18 17 17 16 16 15 15 16 17 18 19 19 17 17 17 18 20 21 21 22 25
30 31 33 33 32 32 30 29 26 22 20 19 17 15 13 10 8 7 8 8 9 11 11 12 12 12 12 12 12 11 11 10 10 10 10 10 12 13 14 16 17 18 19 18 17 16 16 15 15 15 16 17 18 17 16 18 19 19 21 22 22 22 26
29 30 32 32 32 32 31 29 27 23 21 19 17 15 12 9 8 8 8 7 9 11 11 12 12 12 12 12 12 11 10 9 10 11 11 11 12 13 15 16 17 18 19 19 17 16 16 16 16 16 16 17 18 18 18 19 21 21 23 23 22 22 25
27 28 29 30 32 33 32 30 28 24 22 20 17 15 12 10 10 10 8 7 9 11 11 11 12 12 12 11 11 11 10 10 11 12 12 13 14 15 15 16 17 18 19 19 18 17 16 16 17 17 17 18 20 20 20 20 21 23 24 24 23 22 24
27 28 29 30 33 34 32 31 29 26 23 20 17 15 12 11 12 11 8 8 9 11 11 11 12 12 11 11 11 10 10 11 12 12 13 14 15 15 16 16 17 18 19 20 19 18 17 17 17 18 19 19 20 21 22 21 20 23 26 25 23 22 24
26 29 31 33 34 34 32 31 29 26 22 20 17 15 13 13 13 11 8 9 10 10 11 11 12 11 11 11 10 9 10 11 11 12 13 15 16 16 16 17 17 18 19 20 20 19 19 18 18 18 19 20 21 21 21 21 21 23 25 25 22 21 23
26 29 32 34 34 33 32 31 29 26 23 20 18 16 15 15 13 10 9 10 10 10 10 11 11 10 11 11 10 9 10 10 11 12 14 15 16 16 17 17 18 19 19 20 20 21 20 19 18 18 18 19 19 18 19 21 21 23 24 24 22 21 23
27 31 33 34 34 33 33 32 29 26 23 20 18 17 16 15 12 10 9 9 9 9 10 10 10 10 11 11 10 10 10 11 11 13 14 15 16 16 17 19 19 18 18 19 20 21 20 19 18 17 17 17 17 18 18 20 21 22 22 22 21 21 22
28 31 32 33 33 33 33 32 29 25 21 19 19 18 15 13 11 9 8 9 10 10 10 10 9 10 10 11 11 11 11 11 12 13 14 15 16 17 18 20 19 17 17 18 20 21 20 18 17 17 17 17 18 19 19 19 19 19 20 20 20 20 21
27 29 31 32 32 32 32 30 27 22 20 19 19 17 15 14 12 10 9 10 10 10 10 9 9 10 10 11 12 12 13 13 13 14 15 15 16 17 19 20 18 17 18 19 19 19 19 18 17 17 18 18 19 20 21 19 17 16 17 18 19 19 20
25 27 30 31 31 31 30 27 24 21 20 20 20 18 17 15 14 12 12 11 10 10 10 10 10 10 11 12 12 13 14 14 14 14 14 14 15 17 19 18 17 17 18 18 17 17 18 18 17 18 18 19 19 20 21 19 15 14 16 17 18 18 18
21 25 29 30 29 27 25 23 21 20 20 20 20 19 18 17 15 14 14 12 9 10 11 11 11 11 12 13 13 13 13 13 14 14 14 14 15 16 17 17 17 16 16 16 16 16 17 18 18 18 19 19 19 20 22 20 15 14 14 15 17 18 19
18 23 27 26 23 21 20 19 19 19 20 20 20 20 19 17 16 16 16 13 10 10 11 12 12 12 13 14 14 14 13 13 14 14 13 14 14 15 16 17 17 16 16 16 16 17 18 19 19 19 19 20 19 20 22 20 15 14 14 15 17 19 20
17 23 25 22 20 19 19 19 18 18 19 19 20 21 20 18 17 17 17 14 11 11 12 13 13 12 13 14 14 14 13 13 14 13 13 13 13 14 15 16 17 17 16 17 18 19 19 19 19 18 18 19 19 19 21 21 16 14 15 16 18 20 21
18 22 20 18 17 18 17 17 17 17 18 20 22 22 21 20 19 20 20 16 12 12 14 13 12 12 12 13 14 14 14 14 13 13 12 12 13 13 15 16 17 17 17 17 18 18 18 18 18 18 17 18 18 18 20 22 17 13 14 17 18 20 21
18 19 18 16 16 16 16 15 16 18 19 21 24 24 22 21 21 22 22 18 14 14 15 13 11 10 12 14 16 16 15 15 14 13 12 13 13 13 14 14 16 17 16 16 16 17 17 18 19 19 18 17 18 18 19 21 18 13 13 15 18 20 20
17 17 15 15 15 15 16 17 18 19 20 22 24 24 24 23 22 23 23 19 17 16 14 12 10 11 14 16 17 16 16 15 15 14 13 13 13 13 12 13 14 15 15 15 16 16 18 19 19 20 19 18 18 17 17 19 18 15 14 15 16 18 20
16 16 15 15 15 15 17 19 20 21 21 23 24 25 26 25 23 23 23 21 20 17 14 12 12 13 15 17 17 16 16 16 16 15 15 14 13 13 12 11 12 13 14 15 16 17 18 20 19 19 19 18 17 17 16 16 17 16 15 15 15 17 18
14 14 15 15 16 17 18 20 21 21 22 24 24 25 27 26 23 23 24 23 21 17 14 13 14 15 17 19 18 17 16 16 16 17 17 15 13 12 12 11 11 12 13 14 15 17 18 18 18 18 19 18 17 17 15 15 15 15 14 14 15 16 17
13 13 14 15 16 18 19 20 22 22 24 24 24 25 27 25 23 23 24 24 21 18 16 16 16 18 19 20 19 18 18 17 17 17 18 16 12 11 12 12 11 11 11 12 14 15 16 17 17 18 18 18 18 17 16 15 15 15 14 14 15 16 17
12 13 13 14 16 17 19 21 23 24 25 25 25 26 26 23 21 22 23 23 21 19 18 18 19 20 21 20 19 19 18 18 17 17 18 17 13 12 13 13 12 11 11 12 13 15 16 17 17 18 18 18 18 17 17 16 15 15 14 14 15 16 17
10 11 12 13 15 17 19 21 23 24 25 25 26 27 25 21 20 21 21 20 20 19 18 19 21 22 22 21 19 17 16 17 17 17 17 16 14 13 14 14 13 12 11 12 14 15 16 17 18 18 18 18 17 17 17 17 16 15 14 14 15 16 18
9 10 12 14 16 18 20 21 22 23 24 24 25 25 22 19 19 20 19 18 19 19 20 22 22 21 21 20 19 16 15 16 17 17 17 16 14 13 14 14 14 12 12 13 14 15 16 17 18 19 18 18 17 17 16 16 16 15 14 14 14 16 18
9 10 12 13 15 17 18 20 21 21 22 22 22 20 18 18 19 19 18 18 19 20 21 23 22 20 20 19 17 16 15 15 16 16 17 16 13 12 12 13 13 13 13 14 15 15 15 16 17 18 18 17 17 16 16 15 16 16 15 14 14 15 16
8 9 10 11 13 15 16 18 19 20 20 20 18 16 15 16 17 18 18 19 20 20 21 21 20 19 19 17 16 16 15 14 13 13 14 14 12 10 10 13 15 15 15 16 16 15 15 16 17 17 16 15 15 16 16 16 16 16 16 16 15 14 14
6 7 9 11 12 14 15 16 16 16 16 16 15 13 13 15 17 18 19 20 19 19 20 20 20 19 18 17 16 16 14 12 10 11 13 13 12 10 11 15 16 15 15 16 15 14 14 15 16 16 16 15 14 15 16 16 17 17 17 16 15 13 12
6 8 10 13 14 15 15 15 14 13 13 12 12 12 13 15 17 18 19 18 18 18 19 20 19 18 18 18 17 15 15 13 11 12 13 14 14 13 13 15 16 14 14 15 15 14 14 15 15 15 15 15 15 15 15 16 17 16 16 16 15 14 12
9 10 12 14 15 15 14 13 12 11 11 11 11 12 13 15 16 16 17 17 17 18 19 19 18 18 18 18 17 17 16 15 14 15 15 14 14 14 14 15 15 13 12 13 14 14 13 13 13 14 14 15 16 15 15 15 15 16 16 15 14 13 12

ECMWFFLT1_850_spd_015.txt.gz
Wind_Speed
26 27 28 28 27 25 26 27 26 26 26 26 25 23 22 21 20 18 14 11 11 12 10 8 7 6 7 8 10 11 11 11 12 12 11 10 9 9 9 10 11 12 13 12 11 12 12 13 13 13 13 13 12 12 12 13 13 13 13 14 15 16 17
26 26 28 29 29 28 29 29 28 27 27 26 25 23 22 22 22 19 15 13 12 11 11 9 8 8 9 10 11 12 11 11 11 11 10 9 8 8 9 10 11 12 12 12 12 12 12 12 12 13 13 13 13 12 11 12 13 13 14 14 15 16 17
25 27 29 29 30 31 31 30 29 27 27 26 25 25 24 23 22 19 16 14 12 11 11 10 10 10 11 12 12 12 11 11 10 9 9 8 8 9 9 9 10 10 11 12 12 12 12 12 13 13 13 13 12 12 12 12 13 15 16 16 16 16 17
24 27 28 28 28 29 30 31 29 28 27 26 25 25 25 23 21 19 17 15 12 12 13 12 12 12 12 12 12 10 10 10 10 9 9 8 9 9 9 9 9 10 11 11 11 12 12 13 13 14 13 13 12 12 12 12 13 15 16 17 18 17 17
22 24 26 27 28 28 29 30 29 28 26 25 25 25 25 24 21 19 18 15 13 14 13 13 13 12 12 12 11 10 10 10 10 10 10 10 9 9 8 9 9 10 10 11 11 11 12 13 14 14 14 13 12 12 13 13 13 14 15 16 16 16 16
19 23 25 27 28 28 29 30 29 28 27 26 25 25 24 23 20 18 17 15 15 15 14 14 13 12 11 11 10 10 11 11 10 10 10 10 9 9 8 9 10 10 11 11 11 12 13 13 14 14 14 14 13 13 14 14 14 14 15 15 15 16 17
17 22 25 26 26 27 28 30 29 28 27 25 25 24 23 22 20 18 17 16 15 15 14 13 12 12 11 10 10 11 11 10 9 9 10 9 9 9 9 10 11 11 12 13 13 13 13 14 14 14 14 14 14 14 15 15 14 15 15 15 15 17 16
16 20 23 25 25 24 26 28 29 28 27 26 25 25 23 22 20 18 17 16 15 14 14 13 13 12 10 9 10 10 10 9 9 9 10 9 9 9 10 10 11 12 13 14 14 13 13 15 16 15 14 14 14 14 14 14 14 14 15 15 17 18 16
15 19 22 23 23 24 26 27 28 29 28 26 26 25 24 22 20 18 18 16 14 13 13 12 11 12 12 11 10 10 10 9 9 9 9 9 9 9 9 10 12 12 13 14 14 14 15 16 17 16 15 14 14 14 14 14 15 15 15 16 17 19 18
15 18 20 22 23 25 26 26 28 29 29 28 26 26 24 22 20 18 17 15 13 13 13 11 10 10 12 12 9 9 9 9 9 9 9 9 9 9 10 11 12 12 12 13 14 15 15 16 17 17 16 15 14 15 15 14 15 16 16 17 17 19 20
14 18 20 22 24 26 26 27 29 31 31 29 28 27 25 23 20 18 16 14 13 11 12 11 10 9 10 10 8 8 9 9 9 9 9 9 9 10 10 11 12 12 13 14 14 15 15 15 15 16 17 16 16 17 16 16 16 16 17 17 17 19 21
14 17 20 22 25 26 28 29 31 32 32 31 29 28 27 25 21 19 17 15 13 11 11 10 10 9 9 9 8 8 9 9 9 9 9 9 10 10 11 11 12 13 13 14 14 15 15 15 15 17 18 17 17 18 18 16 16 16 17 18 18 19 21
14 16 18 20 23 25 27 29 30 31 32 31 30 30 29 27 22 18 16 15 13 12 11 11 11 11 10 9 8 9 9 9 9 9 9 10 10 11 11 11 12 13 14 14 14 15 16 16 16 17 18 17 17 18 17 16 15 15 16 17 18 18 19
16 17 18 19 22 24 26 27 28 30 30 30 31 32 31 27 22 19 17 16 15 13 11 11 11 11 10 9 10 10 10 9 9 10 10 10 11 11 12 12 13 14 14 14 14 15 16 16 17 17 17 16 16 17 16 15 14 14 15 16 17 17 19
17 18 19 21 23 25 26 27 28 29 29 30 31 33 32 27 23 20 18 16 16 14 12 12 12 11 9 9 10 10 10 10 10 10 10 10 11 12 12 13 14 14 13 14 15 16 16 17 17 17 17 17 16 16 16 14 13 14 16 16 17 19 20
16 17 19 21 23 25 26 27 28 29 30 31 33 34 32 27 23 20 17 16 16 15 14 14 13 11 9 10 11 10 10 11 11 10 10 10 11 12 12 13 14 13 13 14 16 16 17 17 17 16 16 16 16 15 14 14 15 17 18 17 17 19 21
16 16 18 20 22 24 26 28 28 30 31 33 35 35 32 28 25 20 17 17 17 16 15 15 13 11 9 10 11 11 11 11 11 11 10 10 11 12 12 14 14 13 14 15 16 16 16 16 16 15 15 16 15 15 14 15 17 19 18 17 18 19 20
14 15 17 19 22 24 26 28 29 30 31 33 35 35 33 30 26 22 20 20 18 16 16 15 14 11 10 11 11 11 11 11 11 11 11 11 11 12 13 14 13 13 14 14 15 15 15 15 15 15 15 15 15 15 15 15 17 19 19 18 19 20 20
12 14 15 17 20 22 24 26 27 28 30 32 35 36 34 30 26 23 22 21 19 17 16 15 14 13 12 13 12 12 12 12 12 12 12 12 12 13 13 14 13 12 13 14 14 15 15 15 15 15 15 15 15 15 15 15 17 19 20 20 20 21 20
11 12 14 15 17 19 21 22 23 26 28 31 34 34 31 28 25 23 22 21 20 19 18 17 15 15 14 14 14 13 13 13 13 12 12 12 12 13 13 14 13 12 12 13 13 14 14 14 14 14 14 14 15 15 15 15 16 18 20 20 20 21 20
10 11 12 14 16 17 18 20 21 24 26 28 29 29 27 25 23 21 21 21 20 20 21 20 17 16 16 15 15 15 14 14 13 13 13 13 13 13 14 14 12 12 12 13 13 13 14 14 14 14 14 14 14 14 15 15 16 18 20 21 20 20 20
11 12 12 14 15 16 18 19 20 23 24 25 26 25 23 22 21 19 20 20 20 20 22 21 19 18 17 17 16 16 15 15 14 13 13 13 13 13 14 13 12 12 12 13 13 13 14 14 14 13 14 14 14 15 15 15 16 18 19 20 19 19 20
10 12 12 13 14 15 17 19 20 21 23 24 24 22 20 19 19 18 18 19 19 20 20 20 20 19 19 19 18 17 16 15 14 13 13 13 14 14 14 13 13 12 12 12 13 13 13 14 14 13 14 14 14 16 16 15 16 18 19 19 18 19 19
9 12 13 14 14 15 17 18 19 20 21 22 22 21 19 18 17 17 19 19 19 19 19 20 20 21 21 20 19 18 17 16 15 14 13 14 15 14 14 14 13 12 12 12 12 13 13 13 13 13 13 14 15 17 17 16 16 17 18 18 18 18 19
11 13 13 14 15 16 18 18 19 19 19 19 20 20 19 18 16 17 18 19 20 20 20 20 21 21 21 21 19 17 17 16 15 15 14 14 15 14 14 14 14 13 13 13 12 13 13 12 13 13 14 15 16 18 18 17 15 15 16 17 17 17 18
14 15 15 15 16 16 17 18 19 18 18 18 19 19 18 17 17 17 18 19 21 21 21 22 22 21 20 19 18 17 17 17 17 16 15 15 15 15 15 15 14 14 14 13 13 13 13 12 13 14 15 16 16 17 18 17 14 13 16 17 17 16 17
15 16 16 16 17 18 18 19 19 19 18 17 18 18 17 17 18 19 19 19 20 22 23 23 22 20 20 20 19 19 18 18 18 17 16 16 15 15 15 15 15 15 14 14 13 12 12 13 14 15 16 15 15 16 17 16 14 14 17 18 17 16 17
16 16 16 17 19 20 19 18 18 18 16 15 16 16 16 18 21 22 21 21 22 22 23 23 22 21 22 22 22 21 20 20 19 18 16 16 16 16 16 16 16 16 15 15 15 13 14 14 15 15 16 15 17 17 16 14 14 16 18 19 18 17 17
18 18 18 18 19 18 16 15 15 15 13 12 12 13 15 19 21 23 23 24 24 23 22 22 22 23 24 24 25 25 23 20 19 18 17 18 17 17 17 17 17 18 17 16 16 16 15 14 14 14 15 16 17 17 15 14 13 15 18 19 19 18 19
18 19 18 17 17 15 14 13 13 12 11 10 11 12 16 19 20 21 23 23 22 21 20 20 22 24 26 26 26 27 24 20 20 19 18 19 19 18 17 17 18 18 18 17 17 15 14 13 13 13 14 15 16 16 16 15 13 13 16 18 17 18 19
18 18 17 15 15 14 12 11 10 9 9 11 14 15 17 18 18 18 19 20 19 18 17 18 20 23 25 26 25 25 23 20 20 19 19 19 19 18 17 17 17 18 18 19 18 15 14 13 12 13 13 14 15 15 15 14 13 13 15 17 18 18 18
16 16 15 14 13 14 12 9 9 8 7 8 12 14 15 17 17 18 18 17 17 16 16 17 19 21 24 26 25 24 22 20 19 19 19 19 18 19 18 16 15 17 18 18 17 15 14 12 12 12 13 13 14 14 14 13 12 13 14 17 20 20 18
15 14 14 13 14 14 11 8 7 7 5 5 6 8 10 12 14 17 18 17 15 14 15 18 19 20 22 23 23 22 21 21 21 21 20 19 19 18 16 14 15 17 18 17 16 15 14 13 12 13 14 13 13 13 13 12 12 14 18 20 21 20 18
16 15 14 13 13 12 9 8 7 5 6 6 7 9 11 11 11 13 15 15 14 14 15 16 17 17 17 18 18 19 20 21 20 19 19 17 17 17 16 16 18 19 18 18 19 16 13 11 11 11 12 12 12 12 12 12 12 17 21 21 21 19 17
15 15 14 12 11 10 8 6 6 7 8 9 11 12 13 14 14 13 13 14 14 13 13 13 13 14 15 16 18 19 19 19 18 18 18 18 19 21 20 20 20 18 17 19 21 19 16 13 11 12 12 11 11 13 15 16 16 18 20 20 20 19 17
14 13 12 10 9 7 7 8 9 9 10 10 12 14 14 14 13 13 12 11 11 10 11 12 12 13 15 16 17 18 18 18 18 18 18 17 19 20 18 16 18 20 21 22 22 21 20 18 17 17 17 16 16 18 19 19 19 19 19 17 17 17 16
12 11 10 10 8 7 9 10 10 9 10 11 12 13 12 11 9 9 8 8 8 9 10 11 11 13 14 15 17 18 18 18 17 16 14 13 16 18 17 15 18 22 24 26 26 24 23 22 21 20 19 18 19 20 19 19 19 18 17 16 16 16 15
12 10 9 8 8 10 10 10 9 9 10 11 10 10 8 6 5 6 6 6 7 8 9 9 11 13 14 15 17 18 17 16 16 16 14 13 16 18 16 15 17 21 24 26 27 27 26 23 22 21 20 19 18 19 18 18 17 15 15 15 15 15 15

ECMWFFLT1_850_spd_021.txt.gz
Wind_Speed
34 35 39 42 41 41 41 40 40 39 37 35 34 35 34 31 29 27 26 24 22 19 16 13 12 10 9 8 6 5 4 4 5 5 5 6 6 7 7 7 7 7 7 7 6 5 5 5 5 5 5 6 7 7 8 8 9 8 9 9 9 10 10
34 35 38 41 41 40 41 41 41 40 38 36 35 36 35 33 31 28 27 25 23 20 16 13 12 11 10 9 8 6 5 5 6 6 6 6 7 7 6 6 7 7 7 6 4 5 7 7 7 7 7 8 8 8 8 8 8 8 9 9 9 9 9
36 35 37 41 41 41 41 42 41 40 39 37 37 38 37 35 32 29 28 26 24 22 18 14 13 12 11 10 9 7 5 6 6 6 7 7 7 7 6 7 8 8 7 5 5 6 9 10 10 9 9 10 9 9 9 8 8 8 9 10 10 9 9
36 35 37 40 41 41 42 42 42 41 40 39 38 39 38 36 33 30 28 26 25 24 20 16 14 13 12 11 9 7 6 6 7 7 7 7 7 6 7 7 7 8 6 6 6 7 8 10 10 10 11 11 11 10 9 9 9 9 10 11 11 10 9
34 33 34 38 40 40 41 42 42 41 40 40 39 38 38 36 34 32 29 27 26 24 20 16 14 13 13 12 10 8 7 7 8 8 7 7 7 6 7 7 7 6 5 5 6 6 7 8 9 11 13 12 11 10 9 8 9 9 10 10 11 9 8
32 30 31 36 38 38 40 41 41 41 41 41 41 40 38 37 35 33 31 29 27 25 22 18 15 14 14 13 11 9 8 8 8 8 7 7 6 6 6 6 5 4 3 5 5 6 8 9 10 13 14 12 11 11 10 10 9 10 9 9 10 10 9
33 31 31 35 39 39 40 40 40 40 40 40 40 39 38 36 35 34 33 31 29 27 24 20 17 16 15 13 11 10 9 9 8 8 8 7 6 6 5 4 3 2 3 5 6 7 8 10 12 14 13 12 12 13 13 13 13 12 11 10 11 12 12
32 32 31 34 39 39 40 40 40 39 39 39 40 39 38 37 35 35 34 33 31 28 26 22 19 17 15 13 11 11 10 9 8 8 7 6 6 5 4 3 1 0 3 6 8 9 10 10 13 14 13 12 13 14 15 16 16 16 14 11 11 12 12
25 29 32 35 37 38 40 40 39 39 39 39 40 39 38 37 36 36 35 34 32 30 27 24 20 18 16 13 11 11 10 9 9 8 7 6 6 5 3 2 1 3 5 8 9 10 10 11 12 13 12 11 12 14 15 16 17 19 16 12 12 12 13
20 25 32 36 36 35 37 38 38 39 39 39 39 38 38 37 36 36 35 34 33 31 28 25 22 20 17 14 11 12 12 10 9 9 7 6 6 5 4 3 4 6 8 9 8 9 10 10 10 10 10 11 12 13 15 16 17 20 18 13 12 13 13
17 23 29 36 37 34 34 37 39 40 40 40 40 39 37 37 37 36 34 33 31 30 28 26 24 21 18 14 12 13 12 9 8 9 8 7 6 5 4 4 6 9 11 11 12 12 12 11 12 12 11 11 12 12 13 14 17 20 19 14 11 11 11
16 23 29 33 35 35 35 37 40 41 42 42 41 40 39 37 37 35 33 31 29 28 27 26 24 21 18 14 13 15 12 8 10 11 8 6 5 4 5 7 10 13 14 15 16 16 14 14 15 13 12 11 12 12 14 16 19 20 18 14 12 10 10
17 20 24 27 31 36 38 38 40 41 41 42 41 40 40 39 38 35 32 31 29 27 26 25 24 22 17 14 16 18 13 8 11 12 8 5 5 5 6 7 9 11 12 13 13 13 14 16 15 14 13 14 14 15 17 18 19 16 14 15 14 11 11
18 19 20 22 27 35 39 40 41 41 41 40 39 39 40 40 39 36 33 32 30 28 25 25 26 22 18 17 19 21 16 10 10 11 8 6 7 7 6 7 8 10 10 11 11 11 12 13 12 13 13 14 14 13 14 14 12 11 12 14 13 11 11
21 21 21 22 24 31 37 40 40 40 40 39 38 38 39 39 39 36 33 33 31 30 28 28 27 24 21 20 20 20 17 12 10 10 9 8 9 8 8 8 8 9 9 9 9 9 10 10 11 12 13 12 12 12 11 10 9 10 13 13 11 11 12
24 24 24 24 24 28 34 37 39 39 39 39 38 37 38 38 37 35 33 34 35 33 32 32 31 26 23 19 16 18 19 15 14 12 10 10 10 9 9 9 9 8 8 8 9 9 9 10 11 11 11 12 12 12 10 9 9 10 11 10 10 10 11
19 24 26 26 25 27 31 35 38 39 38 38 38 37 37 37 35 33 34 36 38 36 34 35 33 27 24 15 12 18 24 20 17 15 12 12 12 11 11 11 10 9 9 9 9 8 9 10 11 10 11 12 13 12 11 10 9 10 10 9 8 9 10
10 15 22 27 27 26 30 34 35 36 37 37 36 37 37 36 35 36 38 39 38 34 32 33 29 25 23 17 16 21 28 23 19 18 15 14 14 13 13 13 12 12 11 10 9 9 10 10 10 10 11 12 13 14 12 10 9 9 9 10 10 10 11
3 5 11 23 29 27 28 32 33 34 34 34 35 36 37 38 38 40 41 40 36 32 31 29 25 24 24 22 20 24 28 23 20 19 17 16 16 14 15 15 14 14 13 11 10 10 10 10 10 10 10 12 15 15 11 9 9 10 11 12 13 13 13
6 6 6 12 23 28 28 29 30 30 30 31 34 36 37 39 41 42 42 40 38 36 35 33 30 28 27 26 23 26 27 23 21 20 18 18 17 16 17 17 15 15 14 13 12 12 11 11 12 11 11 13 15 14 10 9 11 12 13 15 15 15 15
9 11 9 9 15 23 27 27 27 27 28 30 33 36 38 40 42 42 41 41 41 41 40 38 35 31 29 28 25 26 26 24 23 21 20 20 19 19 19 18 17 16 15 13 13 13 12 12 13 13 12 13 13 12 10 11 14 16 17 17 17 17 16
11 12 13 12 13 17 22 25 26 26 28 31 33 36 39 40 41 41 40 40 40 39 39 39 36 31 29 28 27 27 27 26 24 23 23 22 22 22 21 20 19 17 16 14 14 13 13 13 13 12 11 11 11 11 12 14 16 17 18 18 19 18 16
11 11 13 12 13 15 17 23 26 27 29 31 34 37 39 39 39 38 38 38 37 37 37 36 32 30 30 29 28 27 27 26 26 26 25 25 25 24 24 23 21 18 17 16 15 14 14 14 13 12 11 11 12 13 14 15 16 18 19 18 18 17 16
7 10 12 12 13 14 15 21 26 27 28 31 34 36 37 37 36 35 36 37 37 36 34 33 31 31 31 29 28 27 27 27 27 27 27 28 28 27 26 25 23 21 19 17 16 15 15 14 14 13 12 13 14 15 15 15 17 19 19 17 16 17 16
5 8 11 11 12 13 15 20 23 24 27 32 34 35 35 34 32 32 33 35 36 35 32 32 32 31 30 29 28 28 28 28 28 28 29 29 29 29 28 27 25 23 20 19 17 15 15 15 14 14 14 14 14 14 15 16 18 20 18 17 17 17 15
7 11 13 11 11 13 15 19 21 23 27 31 32 33 32 31 29 28 29 31 33 33 31 30 29 29 29 29 30 29 29 29 29 29 29 30 31 31 30 28 27 25 22 20 18 17 17 16 16 17 17 16 15 15 16 17 19 19 18 17 17 16 14
11 13 13 10 10 13 15 18 21 23 25 29 31 31 30 29 27 25 26 30 33 31 28 26 25 25 27 27 28 28 28 28 29 30 31 31 31 29 29 28 27 26 24 21 19 19 18 17 17 19 18 18 18 18 19 20 20 20 19 18 17 15 14
13 14 13 10 11 12 14 18 20 22 25 28 30 30 28 28 24 21 23 28 30 27 23 22 21 22 23 24 24 25 25 25 27 29 31 31 29 25 25 25 25 25 23 21 21 21 21 19 19 20 21 21 21 21 21 22 21 21 19 18 17 15 14
14 16 14 12 13 11 13 17 19 20 23 29 31 29 27 25 22 22 25 25 24 22 21 18 15 13 14 16 18 20 22 24 27 29 31 31 29 27 26 26 26 25 22 20 21 22 22 21 22 23 24 24 24 23 22 22 22 21 18 17 17 16 14
15 16 14 13 14 13 16 20 20 17 18 24 29 28 26 26 26 25 26 24 22 22 21 17 12 9 9 11 13 15 17 21 25 29 30 29 29 27 24 24 26 25 24 23 24 23 22 23 25 25 25 25 24 23 22 22 21 20 18 17 17 16 14
15 14 14 15 16 17 19 19 19 17 15 17 24 28 26 27 28 25 24 22 20 17 14 11 8 7 7 8 9 11 13 16 21 24 26 27 28 25 22 23 24 25 24 26 27 26 25 25 27 27 26 25 24 22 21 21 20 19 18 18 17 16 14
14 14 16 17 17 18 17 15 18 21 17 13 18 25 26 25 24 21 19 17 12 7 3 2 4 7 10 10 10 11 13 15 19 21 23 25 26 25 24 25 26 26 26 26 26 26 24 23 25 27 26 24 23 22 20 19 19 20 20 19 18 16 15
15 16 18 19 16 15 17 18 21 23 18 12 13 20 22 19 17 15 12 8 6 5 3 5 7 10 12 12 12 13 15 16 18 19 20 22 22 22 20 20 22 24 25 23 22 23 23 23 23 25 25 24 22 20 18 17 18 20 20 20 18 16 15
18 18 19 19 17 16 19 22 24 25 20 13 12 17 18 15 13 11 9 8 7 3 7 9 9 10 12 13 14 15 16 16 15 16 16 17 17 17 16 16 17 20 21 20 19 21 23 22 22 24 25 24 21 18 17 18 18 19 20 20 18 16 16
18 19 20 19 18 19 21 23 25 28 26 19 15 17 18 14 12 10 8 5 1 10 14 11 10 11 12 13 14 15 14 13 13 14 13 13 14 14 14 15 16 17 19 19 18 19 21 21 22 23 23 23 22 21 22 22 21 19 19 19 18 17 18
17 20 21 19 18 20 22 22 23 25 26 22 16 14 13 12 9 7 4 6 12 15 13 9 9 10 10 10 10 9 9 10 12 12 12 13 14 13 13 14 15 16 16 16 16 17 19 20 22 22 21 22 24 25 24 23 21 18 17 18 18 17 17
13 16 19 19 17 17 20 21 20 18 18 18 15 12 11 10 8 8 9 13 16 14 10 8 8 7 7 6 5 6 9 11 13 13 13 14 14 13 12 11 12 13 14 15 16 17 17 18 19 20 20 20 22 20 18 17 17 16 16 17 16 14 13
10 12 13 15 16 17 18 19 17 15 15 16 14 11 9 10 12 14 15 17 16 11 8 6 5 5 5 4 4 7 11 12 13 14 14 13 13 13 11 9 10 11 12 14 15 15 15 16 17 17 18 18 16 14 12 12 13 13 13 13 11 9 10

ECMWFFLT1_850_spd_024.txt.gz
Wind_Speed
42 44 45 46 46 47 48 47 44 42 41 41 40 38 36 35 34 32 30 30 30 28 26 24 23 22 20 19 16 14 12 10 8 7 6 5 5 5 5 5 4 4 4 4 4 5 5 5 5 4 4 4 5 5 5 5 5 4 4 4 4 4 4
40 42 43 45 46 47 48 47 45 44 43 43 42 40 38 37 35 33 31 31 31 30 27 25 24 23 22 20 17 14 13 11 9 8 6 5 5 5 5 5 5 4 3 3 5 5 4 3 3 4 4 4 4 5 5 5 5 4 4 4 3 4 4
38 40 44 46 47 47 47 48 47 46 45 45 44 42 41 39 36 33 31 31 33 32 29 27 24 23 22 20 17 15 13 12 9 7 6 5 4 4 5 5 4 4 3 4 5 4 3 3 3 3 3 4 4 5 5 5 5 5 5 5 5 4 5
40 43 46 48 48 47 47 48 48 47 47 47 45 44 42 39 37 34 31 31 33 34 32 29 25 23 22 20 17 15 13 11 9 7 6 5 5 5 5 4 4 4 4 4 3 2 1 2 2 2 3 4 4 3 4 5 6 6 6 7 6 5 5
39 41 43 45 45 45 46 48 49 49 48 47 46 45 42 40 38 35 32 32 33 33 32 29 26 24 22 20 18 15 13 11 9 8 7 6 5 5 5 4 4 5 5 4 3 2 1 1 1 2 4 4 4 4 5 6 6 7 7 8 8 8 7
36 38 41 44 44 45 47 48 49 49 49 48 48 47 45 42 39 37 34 33 34 34 33 31 28 26 23 21 19 16 14 12 10 9 7 6 6 6 5 5 6 6 6 5 4 3 2 1 1 3 4 4 4 5 6 7 7 8 9 9 10 10 9
36 39 42 44 45 46 46 48 49 49 49 48 48 47 47 44 41 38 36 35 35 35 35 33 30 27 24 21 20 18 15 13 10 9 8 7 7 7 6 6 7 7 7 6 4 4 4 4 3 3 5 5 5 5 7 9 8 9 10 11 11 11 12
39 41 42 43 45 46 46 47 48 49 49 48 48 48 48 46 43 40 38 37 36 36 36 35 32 29 25 22 21 18 15 13 11 9 9 8 8 7 7 7 7 8 8 6 5 5 6 6 5 6 8 7 6 7 8 10 10 10 10 11 12 12 12
42 42 42 43 45 46 46 48 48 48 48 48 49 49 48 46 44 42 40 39 37 37 37 36 34 30 26 23 22 19 16 14 11 10 9 8 8 7 6 7 8 9 9 6 6 7 7 8 8 9 9 8 8 8 8 10 12 12 11 11 13 13 12
39 39 39 40 43 44 45 46 47 47 48 48 48 48 47 47 45 43 42 40 39 37 36 36 35 32 28 25 23 20 18 15 12 11 10 9 8 7 7 9 10 9 8 7 8 9 10 10 11 11 11 11 10 10 11 12 12 13 13 13 14 15 13
37 36 37 38 40 41 41 43 45 47 48 49 48 48 48 46 45 45 44 42 40 38 36 36 36 34 30 26 24 22 19 16 13 11 10 10 9 7 6 9 9 8 7 8 10 11 12 12 12 12 13 14 14 14 15 15 14 14 14 14 16 16 12
36 35 36 36 37 39 40 42 45 47 48 48 49 48 48 47 46 45 44 43 41 39 37 36 37 35 32 28 26 24 20 18 14 10 10 11 9 6 6 7 7 7 8 10 11 13 14 14 14 14 15 15 16 16 17 16 15 16 17 17 17 15 12
35 34 34 34 35 37 40 42 44 46 47 48 48 48 47 47 46 46 45 43 42 40 38 37 37 36 33 30 28 25 21 18 13 9 10 10 7 6 6 6 6 7 8 11 14 16 17 16 15 16 17 17 17 17 17 17 18 19 19 17 15 13 11
33 31 30 32 34 36 38 40 43 45 46 47 47 47 47 47 46 46 44 43 42 40 39 38 38 37 34 32 30 26 21 17 11 9 10 9 8 8 7 6 6 7 9 13 16 17 17 16 15 16 17 17 17 16 16 16 16 16 16 15 13 12 12
32 31 31 33 35 36 37 39 42 43 45 46 46 47 47 46 46 45 44 43 41 40 39 37 37 36 34 32 30 26 21 16 12 11 12 11 10 10 8 7 8 8 11 13 15 15 15 15 15 15 16 15 15 14 13 12 12 12 12 12 11 11 12
31 31 32 33 34 36 37 38 39 41 44 46 46 47 46 46 46 45 44 43 41 39 38 36 35 34 33 32 30 24 20 17 13 13 15 14 11 11 10 10 11 12 13 14 14 15 15 15 15 15 14 14 13 12 11 10 10 10 9 8 8 9 9
31 31 32 32 33 34 35 36 38 40 42 44 46 46 47 46 46 45 44 43 42 40 38 35 33 32 32 32 29 24 21 17 14 15 17 15 12 12 12 12 14 15 15 15 16 16 15 15 14 14 13 13 13 12 10 10 10 10 9 8 8 10 10
32 32 31 31 32 34 35 36 37 39 40 42 44 46 47 46 46 45 44 44 42 40 38 36 34 32 32 30 28 25 22 18 15 16 17 15 14 15 15 15 17 18 17 17 17 16 15 15 14 14 13 13 13 12 11 11 11 10 10 10 11 12 13
29 29 29 30 31 31 33 34 36 36 36 37 40 43 45 45 45 45 45 44 42 40 38 37 36 34 32 30 29 27 21 15 14 15 17 16 16 17 17 18 20 20 19 18 17 17 17 16 15 15 15 14 13 13 13 13 12 11 11 12 12 13 15
22 24 26 28 29 30 31 32 33 33 33 34 36 39 41 43 45 44 44 43 42 40 39 38 37 36 33 31 31 28 21 15 14 15 17 19 19 20 21 21 22 22 21 20 19 19 19 18 17 16 16 15 14 15 15 14 13 13 13 13 14 15 17
17 17 18 20 23 25 28 29 30 32 32 32 34 37 40 43 43 43 43 43 43 42 40 39 38 37 36 34 33 30 24 20 16 15 17 21 22 23 24 24 24 23 23 22 21 21 20 19 18 18 17 16 15 16 16 14 13 14 14 14 15 16 18
13 13 12 12 13 15 18 22 25 27 28 30 34 37 40 40 41 41 42 42 43 43 42 40 38 38 37 35 34 31 27 24 20 18 20 23 24 25 26 26 26 25 24 24 23 22 21 20 20 19 18 16 16 16 17 15 14 15 15 15 16 17 18
11 11 10 10 9 9 10 13 18 21 24 27 32 36 38 39 39 41 41 42 42 43 42 41 38 38 37 34 33 32 29 26 24 21 21 24 25 26 27 27 27 26 25 25 24 23 23 23 22 21 20 18 17 17 17 16 16 17 17 17 18 18 17
11 10 8 8 8 9 10 11 13 17 22 26 31 35 36 36 38 40 41 42 42 42 42 41 39 39 36 32 32 34 32 29 27 24 22 24 25 25 27 28 28 27 26 26 26 25 24 24 24 25 25 23 19 18 18 17 17 19 19 18 19 18 18
12 10 8 7 7 9 10 11 12 15 20 26 30 33 35 37 39 41 41 42 43 43 43 42 41 39 33 29 31 34 33 29 26 22 20 22 23 24 27 29 29 28 27 27 28 27 27 26 27 28 29 27 23 21 20 20 19 19 20 20 20 19 19
9 7 6 5 7 10 10 10 11 13 18 23 27 30 31 32 36 40 41 42 45 46 43 41 39 36 31 29 30 33 31 26 20 18 19 22 23 25 28 29 29 30 29 28 28 28 29 29 30 29 29 27 25 24 25 25 24 22 22 22 21 21 20
7 5 5 6 9 11 10 9 9 11 14 19 24 27 26 24 29 34 36 38 42 42 38 36 34 31 27 26 28 29 25 20 17 19 22 25 26 27 29 30 31 32 30 27 28 30 30 31 31 30 28 27 26 27 28 26 23 22 23 24 22 21 21
5 5 6 8 10 10 10 10 10 11 14 17 23 28 27 25 28 31 29 31 34 33 29 27 27 24 22 23 23 22 19 18 19 23 25 27 27 29 30 30 32 33 30 26 26 29 31 32 32 31 30 28 27 29 29 25 20 19 21 23 22 22 22
6 7 8 9 10 11 10 11 12 14 17 20 24 27 27 27 30 30 26 29 32 27 21 20 20 19 19 19 18 17 18 19 21 23 25 26 27 28 29 29 31 32 28 24 24 27 29 30 30 30 31 29 27 28 28 26 22 21 22 24 24 23 22
6 9 10 12 13 14 13 12 12 14 17 21 24 26 26 25 28 26 23 28 32 29 22 19 19 19 18 17 16 16 18 19 20 21 22 23 25 26 27 27 27 25 22 21 21 23 25 27 27 28 30 29 27 27 26 25 22 20 21 24 25 24 22
8 11 13 14 14 14 12 11 10 12 15 19 23 25 24 23 23 22 21 25 31 29 23 20 20 19 16 14 14 15 16 16 16 17 17 18 19 20 21 21 19 17 16 17 18 20 23 25 26 27 28 28 27 25 23 22 20 18 19 23 25 24 22
9 11 13 13 12 12 12 10 10 11 14 18 21 23 22 22 23 23 21 24 26 25 22 19 18 15 13 13 13 13 13 13 13 12 13 13 14 15 15 15 13 13 13 14 15 17 20 22 23 24 24 24 24 22 21 21 20 18 20 23 24 23 21
9 12 13 13 13 13 14 13 13 14 16 19 21 20 20 22 23 22 21 21 21 21 18 15 12 11 10 10 10 10 11 11 11 11 11 11 12 13 13 13 13 13 12 13 14 16 17 18 19 20 20 21 22 22 22 22 20 19 20 22 22 21 19
10 12 14 15 16 15 16 15 15 16 18 20 21 20 19 22 23 24 24 22 18 16 14 10 6 6 7 8 10 11 10 10 10 9 9 9 10 11 12 13 13 13 13 13 15 15 15 16 17 18 19 20 21 20 20 20 20 19 18 19 20 20 18
11 13 15 17 17 16 15 15 16 17 19 21 20 18 19 24 24 22 22 19 13 11 9 5 2 5 9 11 11 11 9 9 9 9 9 10 10 11 12 13 14 14 13 14 15 16 15 16 16 17 17 18 18 18 18 18 18 17 17 18 19 20 20
10 14 16 17 17 15 14 15 17 19 19 20 19 17 19 23 21 19 20 18 12 8 4 6 7 7 11 12 11 11 10 10 10 10 10 11 12 13 13 14 14 14 13 14 15 15 15 16 16 16 16 16 16 16 17 17 16 16 18 20 20 21 20
9 12 14 16 16 14 13 14 17 18 19 20 20 19 19 22 24 24 21 16 12 9 4 9 11 11 12 12 12 12 11 11 11 11 11 12 13 14 14 13 13 13 13 13 13 14 14 16 17 16 15 15 15 14 14 14 14 15 17 18 18 18 17
6 9 13 14 14 13 13 14 17 19 19 20 21 20 21 23 24 21 15 11 11 10 10 13 13 14 15 14 13 12 11 11 12 12 13 13 14 13 13 12 11 10 11 11 12 13 13 14 15 15 15 15 14 14 13 12 12 12 13 14 15 16 17

ECMWFFLT1_850_spd_030.txt.gz
Wind_Speed
38 42 44 46 47 48 49 49 48 48 47 47 46 45 44 43 42 41 40 38 36 35 35 35 34 34 34 33 31 29 26 25 23 22 21 20 18 18 17 17 17 17 16 15 14 13 13 12 12 12 11 11 10 10 9 9 9 9 9 10 10 11 11
36 40 43 45 47 48 49 49 49 48 48 47 47 46 46 45 44 43 41 39 38 37 37 36 36 36 35 34 32 30 27 25 24 23 22 21 19 19 18 17 17 16 16 15 14 14 13 13 12 12 11 11 10 10 10 10 11 10 10 10 11 11 12
36 39 43 45 48 49 49 49 49 49 48 48 48 47 46 46 45 44 43 41 39 39 39 38 37 37 36 35 33 31 29 26 25 24 23 22 20 19 19 18 17 16 16 16 15 15 13 12 12 11 11 11 10 11 11 11 11 10 9 10 10 10 11
37 41 44 46 47 49 49 49 50 50 50 48 47 46 46 45 45 45 43 42 41 41 41 40 39 38 37 36 35 33 30 28 26 26 24 22 20 19 19 18 18 17 17 16 15 14 13 12 12 11 11 11 10 10 10 9 8 7 7 7 7 7 8
38 41 43 44 46 47 47 48 50 51 50 49 47 46 45 45 45 46 45 43 42 42 42 41 40 39 38 37 36 34 31 29 28 27 25 23 21 20 20 19 18 17 16 15 15 14 13 12 11 11 12 11 10 9 8 7 6 5 4 4 5 5 6
38 41 43 44 45 46 47 49 51 51 51 50 48 46 45 46 46 46 45 45 44 44 43 42 41 41 40 38 37 35 32 30 29 28 26 23 22 21 20 19 18 16 15 15 15 14 12 11 11 13 13 11 10 9 8 8 7 6 6 6 6 6 7
37 41 43 44 45 47 48 50 51 51 52 51 49 47 47 47 47 46 46 46 46 45 45 45 44 42 41 39 37 35 33 31 30 29 27 24 22 22 21 18 17 15 15 15 15 14 12 11 12 14 13 11 11 10 10 10 9 8 8 9 9 9 9
37 41 43 45 46 47 48 49 50 50 50 50 49 48 48 48 48 48 48 47 47 47 46 46 45 44 42 40 38 37 34 33 31 29 27 25 24 23 21 18 16 16 16 16 15 14 13 12 13 14 13 12 12 11 11 11 11 11 11 12 12 12 12
35 39 42 43 44 46 47 48 48 48 49 49 49 49 49 49 50 49 49 48 48 47 47 47 46 45 43 41 40 39 36 34 32 31 29 26 25 24 21 18 17 16 16 15 14 14 14 13 14 14 14 14 13 13 12 12 12 12 13 14 14 14 14
33 37 40 41 43 44 44 44 45 45 47 48 48 49 50 50 51 51 50 50 49 48 47 47 47 45 43 42 41 40 37 35 34 33 31 28 27 25 21 18 17 16 15 14 14 15 15 15 15 15 15 15 15 14 14 14 14 14 15 15 15 16 16
33 36 38 39 40 40 40 42 43 44 46 47 48 49 50 50 51 51 51 51 51 50 48 48 48 47 45 43 42 41 39 36 36 35 33 30 28 25 21 18 18 16 14 14 15 15 15 16 16 16 16 16 15 14 15 15 16 16 16 16 17 17 17
34 37 38 38 38 38 39 40 41 43 45 45 46 48 48 49 50 50 50 51 51 50 50 50 50 48 47 46 44 43 41 40 39 37 33 30 28 24 21 19 18 16 13 13 15 16 16 16 16 16 16 15 15 15 15 16 16 17 17 17 18 18 18
34 35 36 36 35 36 37 38 40 41 42 43 44 45 45 46 47 48 49 50 50 50 51 50 51 51 50 48 46 44 43 43 40 35 31 28 26 24 20 19 19 16 12 12 14 16 16 14 15 16 16 16 16 16 16 16 16 17 17 18 19 19 19
28 30 31 32 33 35 36 37 38 38 39 40 40 41 42 43 45 45 46 48 48 49 49 50 51 52 51 50 50 47 44 41 35 29 27 26 25 24 21 21 21 17 11 11 14 17 16 14 15 17 17 17 18 17 17 17 17 18 18 19 19 19 19
28 31 32 33 34 35 35 35 35 36 36 36 37 38 39 40 42 44 45 46 46 47 48 48 49 51 51 52 48 40 35 33 29 25 26 27 27 25 23 22 22 18 13 11 13 17 18 17 17 19 19 19 19 18 18 18 19 19 19 19 19 19 19
32 34 35 36 36 35 34 33 33 33 33 33 34 35 36 38 40 41 43 44 44 45 46 47 48 48 45 39 33 30 31 31 29 28 29 29 29 27 24 24 24 21 15 13 14 18 20 20 20 21 21 21 20 19 19 19 19 19 19 19 19 19 18
35 36 36 36 35 34 32 32 31 31 31 30 30 31 33 35 36 38 40 41 43 43 45 46 44 41 38 33 32 36 37 34 32 32 34 33 31 30 27 26 27 24 17 15 18 22 23 22 23 22 22 21 21 21 21 20 20 19 20 20 20 19 19
35 34 34 34 34 33 32 31 29 28 26 26 27 28 29 30 33 35 36 37 39 41 42 42 39 39 40 41 41 43 41 39 36 34 35 36 34 31 29 28 29 26 19 18 22 26 25 24 24 24 23 22 22 22 22 22 21 21 21 21 20 20 20
32 32 34 34 33 32 32 30 27 24 23 23 24 24 24 27 29 30 30 32 35 37 39 38 38 40 42 41 40 40 39 39 36 31 32 38 36 30 29 31 30 27 22 22 25 27 27 27 26 25 24 23 22 22 22 23 22 22 22 22 21 20 20
31 32 33 32 31 31 30 27 24 23 23 23 22 22 23 25 26 26 28 31 33 35 36 36 37 39 40 38 38 38 35 34 35 32 34 39 36 31 32 34 33 28 25 25 27 29 30 29 28 28 26 24 23 22 23 23 23 24 24 22 21 20 21
30 31 31 30 29 28 26 24 23 22 22 21 21 21 23 24 24 25 28 30 32 33 33 34 36 37 38 37 38 39 35 32 35 36 36 40 39 35 34 35 34 30 28 28 30 31 31 30 30 28 27 25 23 23 23 24 24 25 25 23 21 21 22
27 28 27 25 23 23 23 22 21 20 18 16 15 15 16 17 19 22 25 28 30 31 31 33 35 36 37 38 39 40 36 32 33 34 36 42 42 38 36 35 32 30 29 30 32 32 31 31 30 28 26 25 24 24 24 25 25 25 26 25 23 22 23
25 25 23 20 18 18 18 17 14 10 7 5 4 6 7 9 12 16 21 25 28 30 31 32 34 36 37 38 39 41 36 31 30 30 34 40 41 38 35 31 27 28 29 30 32 33 32 31 29 27 25 25 25 26 26 26 25 25 26 25 24 24 24
19 17 16 15 14 11 9 8 7 6 4 3 2 4 6 7 9 12 16 20 23 27 30 32 34 36 36 37 39 39 33 28 27 28 32 37 40 38 34 29 27 28 29 29 31 33 32 31 29 26 25 25 25 25 27 28 26 26 26 25 24 25 25
13 12 11 11 10 9 9 8 8 7 5 3 2 4 6 9 11 12 13 16 19 24 27 30 32 33 33 36 38 36 31 28 28 30 32 36 41 41 35 28 25 26 26 26 28 31 31 30 27 26 26 26 26 25 26 28 27 26 26 25 25 26 27
14 14 13 13 13 12 9 7 6 5 4 2 1 3 6 9 10 11 12 14 17 20 23 25 28 29 31 35 36 33 31 28 28 30 31 34 39 39 32 23 19 19 20 21 23 25 26 25 24 24 24 24 25 25 26 27 25 24 24 25 25 27 29
13 14 14 14 13 10 7 5 4 4 5 5 4 3 5 7 7 8 9 12 14 16 19 21 25 27 30 33 33 32 31 28 27 30 31 33 36 33 27 21 17 16 17 19 19 19 19 19 20 21 22 22 23 24 24 25 24 22 22 23 23 25 29
15 14 12 10 9 8 6 3 2 3 4 5 5 4 4 5 5 5 6 9 11 13 16 19 22 25 28 29 31 32 30 26 27 30 31 35 38 34 27 23 20 18 18 18 15 14 15 17 18 20 21 22 22 23 23 23 23 22 21 21 20 21 23
14 12 10 9 9 7 5 3 2 2 3 4 4 3 3 3 4 4 5 7 10 12 16 18 19 22 25 27 30 31 28 24 25 27 29 31 35 34 31 28 24 22 19 15 13 14 16 17 18 19 21 21 22 22 22 22 23 23 21 20 18 18 19
16 14 11 10 8 6 4 4 4 5 4 3 2 3 3 3 4 5 6 8 10 12 15 17 17 20 22 25 27 28 26 22 19 21 24 28 30 31 32 31 28 23 17 13 13 15 16 17 18 19 21 21 21 21 22 23 24 23 21 19 18 19 19
15 13 10 8 6 5 3 3 5 5 4 3 4 5 5 5 4 5 7 8 9 11 13 15 16 18 20 22 23 24 23 20 17 17 22 27 29 29 30 29 26 19 13 12 15 16 17 18 19 20 21 21 21 21 22 22 22 21 20 19 19 20 19
11 10 7 5 4 3 3 3 4 5 5 6 7 7 7 6 6 6 8 8 9 10 12 14 14 15 16 17 19 20 20 18 16 17 21 26 28 27 24 22 17 13 13 15 17 18 19 19 19 20 20 20 21 21 21 21 21 20 19 19 20 20 19
11 9 7 5 4 3 3 3 4 4 5 6 7 7 7 7 7 8 8 9 9 10 11 11 12 12 13 15 17 17 17 16 16 17 20 24 24 20 16 13 12 13 16 18 18 19 19 19 18 18 19 19 20 21 21 20 19 18 17 18 19 20 19
8 7 7 6 5 5 6 7 7 6 6 6 6 6 7 8 8 8 8 8 8 7 8 10 10 11 12 15 15 13 14 16 17 18 19 19 16 13 11 11 12 15 17 19 19 19 18 17 18 18 19 20 21 21 20 18 16 16 17 17 18 19 18
9 7 7 6 4 4 6 7 7 7 7 7 7 7 8 7 7 7 7 7 6 6 7 9 11 12 13 14 14 14 16 18 17 17 16 13 11 10 11 12 13 16 18 19 18 17 16 17 18 18 20 21 21 20 18 15 14 15 16 17 17 18 17
10 9 7 6 5 4 5 6 6 7 7 7 8 8 7 6 6 7 7 7 7 7 8 10 12 14 14 14 14 14 14 12 10 9 8 7 6 8 11 13 15 17 18 16 15 15 16 17 18 19 20 19 18 16 15 14 13 14 15 16 17 17 16
8 8 7 7 5 4 5 5 5 6 7 8 8 8 7 6 7 7 8 8 9 9 11 13 14 14 14 14 13 12 9 6 5 5 7 9 11 13 15 17 18 17 16 15 15 15 16 17 18 18 17 16 15 14 14 14 14 15 16 16 16 16 15
6 6 6 5 3 2 2 2 3 5 5 6 7 7 7 7 8 9 11 12 12 12 13 15 16 18 18 16 13 10 8 8 10 11 14 16 16 17 18 19 19 17 15 15 15 15 15 16 17 16 15 14 14 14 14 15 16 17 17 17 15 14 13

ECMWFFLT1_850_spd_033.txt.gz
Wind_Speed
31 35 41 46 50 50 49 49 47 46 45 44 43 43 43 42 41 40 39 38 38 37 36 35 34 33 31 31 30 29 29 29 29 28 26 25 23 21 20 18 16 15 15 15 14 14 13 14 14 13 12 12 11 11 11 11 10 9 9 9 9 9 9
30 33 38 45 50 50 50 50 48 48 47 45 45 44 44 44 42 41 41 40 39 37 36 36 35 34 33 32 31 31 31 31 30 29 27 26 24 22 20 19 17 16 15 15 15 15 15 15 15 14 12 12 12 12 12 12 11 10 10 10 10 11 10
32 35 40 46 49 51 52 51 50 50 49 47 47 46 46 44 42 41 41 41 40 39 38 37 36 35 34 33 33 33 33 32 31 30 29 27 24 22 21 20 18 17 16 16 16 16 16 16 15 13 12 12 12 13 12 12 12 11 11 11 11 11 11
35 39 43 47 50 52 52 52 52 51 50 50 48 46 45 43 41 41 41 40 40 40 39 38 37 37 35 35 35 35 35 34 33 31 29 27 25 23 21 20 19 18 17 17 17 17 17 17 16 14 13 13 13 13 13 12 12 12 12 12 11 11 10
35 39 43 46 49 51 51 52 53 52 51 50 49 48 45 42 42 42 41 40 40 40 40 39 39 38 37 36 36 37 36 34 33 31 29 27 26 24 22 21 20 19 18 18 18 18 18 18 16 14 14 14 13 13 13 12 12 12 11 10 10 9 8
36 40 44 46 48 50 51 52 53 53 52 51 49 48 46 45 44 42 41 40 41 41 41 41 40 39 38 37 38 38 37 35 34 32 30 29 27 24 23 22 21 19 19 18 19 19 19 18 16 15 14 14 13 13 13 13 12 11 10 10 9 8 7
38 42 44 45 46 48 49 50 51 52 52 51 50 48 47 47 46 44 42 41 41 42 42 42 42 40 40 39 39 39 38 37 35 33 31 29 27 24 23 22 21 20 20 19 19 20 20 18 16 15 14 14 13 14 14 13 12 12 11 11 10 9 9
36 40 43 44 45 45 46 48 50 50 50 50 50 50 49 49 47 46 45 42 42 42 42 42 43 42 42 41 41 40 39 38 36 34 32 28 25 23 23 23 21 21 20 20 20 21 20 17 16 15 15 14 14 15 14 13 13 13 12 12 11 11 11
30 36 39 40 42 43 44 46 48 48 49 49 49 49 49 49 48 47 46 43 43 42 42 42 43 43 43 43 42 41 40 38 36 33 30 26 24 22 22 23 22 21 21 20 21 21 19 17 16 15 15 15 16 16 15 14 13 12 12 12 13 14 14
25 31 35 37 40 42 43 44 45 46 47 47 48 48 48 49 49 48 47 46 45 44 43 43 44 44 44 43 43 41 39 37 34 30 27 25 24 24 24 24 24 22 21 21 21 21 19 17 17 16 16 16 17 16 15 14 13 12 12 13 14 16 17
21 26 31 35 38 40 41 43 43 44 45 45 46 47 47 48 49 48 48 47 46 45 44 45 45 45 44 44 43 39 36 35 32 30 29 29 27 26 26 25 24 23 22 21 21 21 19 18 18 18 18 17 17 16 16 15 14 13 13 14 16 17 18
19 23 28 32 36 39 40 41 41 43 44 44 44 45 46 46 47 47 47 47 47 46 46 47 46 46 45 43 40 39 38 38 37 36 34 32 29 26 25 26 25 24 22 21 21 21 21 19 19 19 18 17 17 17 16 15 15 15 15 16 17 18 19
19 22 26 29 34 36 38 39 40 41 42 42 42 42 43 43 44 44 45 46 47 47 48 48 48 48 45 42 42 44 46 45 42 39 37 34 30 27 25 25 25 25 23 21 21 22 21 21 20 20 19 18 19 18 16 15 16 16 16 17 17 18 18
19 22 25 29 33 36 37 39 39 39 39 39 39 39 40 41 41 42 43 44 45 46 47 48 48 47 44 45 47 49 49 47 43 40 38 36 33 31 29 27 28 27 24 23 23 22 21 21 21 21 20 20 20 19 17 16 17 17 18 17 17 18 18
22 24 27 30 33 36 37 38 37 36 35 34 35 36 37 38 39 39 40 42 42 44 45 46 46 45 44 46 48 48 47 46 42 40 37 34 34 36 35 34 33 29 27 27 25 21 20 22 22 22 22 21 21 19 18 18 19 18 18 18 17 18 18
24 26 29 32 34 35 36 36 35 33 31 31 32 32 33 34 34 35 37 38 40 41 42 43 44 43 44 45 45 46 47 43 39 36 34 34 37 39 40 40 39 34 32 32 28 21 20 22 23 24 24 23 22 21 20 20 20 19 19 18 17 18 19
25 28 31 33 34 35 34 33 32 30 28 28 27 26 27 27 28 30 32 34 36 38 39 40 40 41 42 43 43 44 43 39 35 34 34 38 42 43 42 42 41 38 35 35 31 23 20 22 23 24 25 25 24 23 22 22 21 20 19 18 18 18 19
28 30 31 33 34 34 33 32 30 27 25 22 21 21 21 21 23 25 27 30 32 34 35 37 38 39 40 41 40 40 40 38 37 35 36 42 46 46 43 41 41 39 36 36 33 26 22 23 23 24 25 26 26 25 24 23 22 21 20 19 19 19 20
30 31 32 34 34 33 32 30 26 22 20 17 16 15 14 16 18 20 22 25 28 29 31 33 35 36 37 38 38 38 38 38 37 35 36 41 45 46 43 40 41 40 38 37 35 28 25 25 25 26 27 28 28 27 25 25 23 22 21 20 19 19 20
30 30 31 31 31 31 30 27 23 20 17 15 13 12 13 14 15 17 19 21 23 25 28 30 31 33 34 35 37 37 37 37 36 34 33 38 43 46 44 41 41 42 39 38 37 31 27 26 26 27 27 27 28 28 27 27 25 23 22 21 20 20 21
27 28 29 29 28 29 28 25 22 19 18 16 15 14 13 13 14 15 16 17 20 23 25 26 28 29 31 33 34 35 36 35 34 32 31 35 41 45 44 41 42 41 38 38 38 33 29 27 27 28 27 26 28 29 28 27 26 24 23 23 21 21 22
23 23 25 27 27 26 25 24 22 21 19 16 13 10 9 8 9 11 13 14 17 20 21 23 25 27 29 31 32 34 34 34 34 31 29 31 39 44 44 42 43 41 37 37 38 35 31 29 29 29 27 26 28 28 28 27 26 24 23 23 22 22 24
19 19 22 25 25 24 23 22 20 18 14 11 9 8 7 7 7 7 9 11 14 16 18 20 23 25 27 28 30 32 33 33 33 30 27 30 36 41 42 43 44 42 38 37 38 35 32 31 31 30 28 27 27 27 26 26 24 22 22 21 21 22 24
18 20 21 21 20 18 17 16 16 16 16 16 15 12 10 8 6 5 5 7 9 12 14 17 19 21 23 25 28 30 32 32 31 28 27 29 33 36 40 42 43 42 38 37 38 36 33 32 32 30 28 27 26 25 25 26 24 23 23 22 20 21 24
14 15 14 14 16 19 21 22 23 23 21 18 15 11 9 7 5 4 3 3 5 8 11 13 14 16 18 22 25 28 31 31 29 26 27 29 30 31 35 39 40 39 37 36 37 36 35 34 32 29 27 26 26 25 25 26 25 25 25 23 21 21 23
19 22 24 25 27 29 28 26 25 23 20 16 12 10 8 6 5 4 3 2 3 5 6 7 9 12 15 19 23 27 30 29 27 25 26 27 27 29 33 36 37 37 36 36 36 35 33 30 28 27 27 26 25 24 24 25 24 22 21 20 21 21 22
31 33 34 33 31 30 28 25 22 19 17 14 11 9 7 6 5 5 3 2 1 1 2 4 7 10 14 18 22 26 27 26 25 26 25 24 24 29 33 33 34 35 34 33 32 30 29 27 25 26 25 22 21 21 22 22 20 18 17 18 19 20 21
33 34 32 30 28 26 24 22 19 16 15 12 10 8 7 6 6 5 4 2 1 0 1 4 7 10 14 17 20 23 25 25 25 26 28 25 23 27 30 31 33 35 33 31 29 27 25 24 23 22 19 18 18 19 19 18 16 16 16 16 18 19 20
32 32 31 29 26 23 22 21 18 16 14 11 9 8 7 7 7 6 5 3 2 0 2 5 7 10 13 16 19 21 23 24 24 26 28 25 23 25 26 28 32 35 32 28 24 22 21 19 18 18 17 17 17 16 15 14 14 15 16 16 17 18 18
32 31 30 29 27 24 21 20 18 16 14 11 9 8 6 5 5 5 4 3 1 2 3 5 8 10 13 16 19 21 22 22 23 25 25 22 22 25 26 27 33 36 32 25 19 18 19 18 17 18 17 16 15 14 13 13 14 15 16 17 17 17 16
29 28 27 26 25 23 20 19 18 16 14 11 9 7 5 4 4 4 4 3 3 4 5 7 8 10 12 14 17 19 20 21 22 24 23 20 22 26 27 29 34 36 31 24 19 19 20 21 20 19 17 15 14 12 12 14 15 16 17 18 17 17 16
25 23 22 21 20 19 17 16 14 12 11 9 6 4 4 5 5 5 4 4 4 6 6 7 7 8 9 11 14 15 17 19 20 22 21 20 23 26 26 28 33 34 29 25 23 23 24 25 22 18 15 14 14 13 14 16 17 17 18 19 18 17 16
21 19 17 16 14 12 10 8 6 5 6 6 5 5 6 7 7 7 6 6 6 7 7 6 6 6 7 9 11 13 15 17 18 19 17 18 22 24 24 25 28 30 29 28 27 26 24 21 17 13 12 14 15 16 15 16 17 17 18 19 19 18 16
17 16 15 14 11 10 8 6 5 6 7 8 9 9 9 9 9 9 8 7 7 7 6 6 6 6 7 8 10 12 13 15 17 17 17 18 19 21 21 22 22 23 25 26 24 21 16 13 11 11 13 15 16 16 15 16 17 18 18 18 18 17 16
16 15 14 12 10 8 7 6 7 8 9 10 10 10 9 8 7 8 7 6 6 6 7 8 8 8 9 9 9 10 12 13 15 16 17 18 18 17 18 18 19 20 21 19 16 13 12 11 12 13 14 15 16 16 16 16 17 18 18 17 17 16 16
15 14 12 10 8 7 7 7 8 9 10 9 8 7 6 4 4 4 5 5 5 6 7 9 10 11 11 10 10 11 11 11 13 14 15 15 14 15 16 16 17 16 14 12 11 10 11 13 13 14 15 15 16 17 17 17 17 18 17 16 15 15 15
13 12 10 8 7 7 7 8 8 8 7 6 5 4 3 2 2 2 3 5 6 6 8 10 11 12 13 13 13 12 11 10 10 10 11 11 12 15 16 15 14 12 9 7 8 10 11 12 13 14 15 16 16 16 17 17 17 17 16 15 15 15 15
10 9 8 7 6 5 6 6 6 6 5 4 3 3 2 1 1 2 3 5 6 8 10 12 12 14 17 18 16 14 13 12 10 10 11 13 13 13 12 10 9 9 7 7 8 10 11 12 13 14 14 15 15 15 16 16 16 15 15 15 16 15 15

ECMWFFLT1_850_spd_036.txt.gz
Wind_Speed
27 29 32 32 32 32 34 36 37 39 41 42 42 40 40 39 39 39 39 38 37 37 36 36 35 34 33 33 31 30 29 28 27 26 25 23 22 20 19 19 18 16 15 16 16 15 13 12 12 12 11 10 9 9 9 8 7 7 7 7 6 5 5
26 28 30 32 33 34 37 40 43 44 43 43 42 41 41 40 40 40 40 39 38 37 37 36 36 35 34 33 32 31 30 29 28 27 26 24 23 22 20 19 19 19 18 16 15 15 14 13 13 12 12 11 10 10 10 9 9 9 9 9 8 7 6
25 27 29 32 33 35 39 44 45 45 45 43 42 42 42 42 40 40 40 39 38 37 37 37 36 35 34 34 33 32 31 30 29 28 27 25 24 23 22 21 20 19 16 14 14 14 14 14 14 13 13 12 11 12 12 11 11 11 11 10 9 9 8
24 26 28 31 33 35 40 46 48 47 46 45 43 42 42 41 40 39 39 39 38 37 37 38 37 36 35 34 34 33 32 31 30 29 27 26 25 24 23 21 20 18 15 14 15 16 15 15 15 15 14 13 12 13 14 13 13 12 12 12 10 10 9
23 24 26 29 32 33 35 41 47 49 48 45 44 43 41 40 39 39 39 38 37 37 36 36 37 37 36 35 35 34 33 32 31 30 28 27 26 24 23 21 20 18 17 17 17 17 17 16 16 16 15 14 14 15 15 14 13 13 13 12 11 10 9
21 24 27 29 31 33 36 40 44 47 49 47 46 44 42 39 39 39 38 38 38 37 35 36 36 37 36 36 35 35 34 33 31 30 29 27 26 24 23 22 21 20 19 19 19 18 18 17 17 17 16 15 15 15 15 15 13 13 13 12 11 10 8
21 24 28 30 30 32 36 38 38 40 44 45 46 45 43 41 40 40 39 38 38 37 37 37 37 37 37 36 36 35 35 34 32 30 30 28 27 25 24 23 22 21 21 20 20 19 19 18 17 17 16 16 16 15 16 16 14 13 13 12 11 11 10
20 23 26 27 28 27 28 31 32 32 34 38 42 44 44 42 40 40 41 39 38 38 38 38 37 37 37 37 37 37 36 35 34 32 31 30 28 27 26 24 23 22 22 22 21 21 20 19 17 17 17 17 17 17 17 17 15 14 14 14 13 12 11
17 20 22 22 24 25 24 25 27 28 31 35 39 40 43 43 40 40 41 39 39 39 38 38 38 38 38 38 38 38 38 38 38 35 32 30 29 29 28 25 23 24 24 24 23 22 21 19 18 18 19 18 18 18 18 17 16 16 16 16 15 14 12
14 16 18 19 21 22 22 23 26 31 34 37 39 39 41 43 41 40 40 39 38 38 38 37 36 37 39 39 39 40 41 41 39 35 31 29 29 30 28 25 24 25 24 24 24 23 21 20 20 20 20 20 20 20 19 18 17 17 18 17 16 15 13
12 14 15 17 19 21 22 23 27 34 37 39 40 40 41 43 42 42 42 40 39 37 37 35 33 35 39 40 41 42 41 39 38 35 31 30 30 30 29 26 24 24 24 26 27 25 22 21 21 22 22 21 21 21 20 19 19 18 19 18 17 15 14
11 13 14 16 19 22 24 25 28 34 36 39 40 40 41 41 41 42 42 42 40 36 33 31 30 34 40 42 43 42 40 38 37 35 33 33 33 32 32 31 30 30 30 31 32 28 25 25 25 24 23 22 22 22 21 20 20 20 19 19 17 16 15
12 13 14 15 18 22 25 27 31 34 36 38 39 38 39 39 39 39 40 41 39 33 29 28 31 35 40 42 42 40 39 40 38 35 35 36 35 34 34 34 35 37 37 35 33 30 28 28 26 24 23 23 23 23 22 21 22 21 20 20 19 18 17
13 13 15 16 18 22 26 30 34 35 36 37 37 37 37 36 37 37 38 39 37 31 27 28 32 35 38 41 39 34 34 39 39 37 38 38 36 35 35 35 36 39 39 38 35 32 30 29 27 24 24 24 24 24 23 23 23 22 22 21 20 20 19
14 14 16 18 20 23 26 31 35 37 37 37 36 36 36 36 36 36 36 36 35 32 28 27 31 35 37 39 37 30 29 37 40 39 39 39 39 38 38 38 39 39 40 41 39 34 32 30 27 26 26 26 25 25 25 25 24 23 24 23 21 20 19
14 15 18 21 23 25 27 31 35 37 37 37 36 36 36 36 35 35 35 34 35 34 30 29 33 35 35 37 37 34 33 36 38 37 38 40 41 41 41 41 41 40 41 42 41 38 34 30 28 28 28 26 27 27 26 26 26 25 25 24 21 19 18
16 17 19 21 24 25 27 30 34 36 37 37 35 34 34 34 32 32 33 32 33 34 31 33 35 32 32 35 36 35 34 35 35 35 35 38 41 43 43 42 43 43 43 42 42 39 35 32 30 29 28 27 28 28 27 26 26 26 25 23 21 19 19
18 20 21 23 24 26 28 33 36 38 38 35 33 34 33 31 30 29 29 30 31 30 30 32 33 32 31 31 30 30 32 33 33 33 33 35 38 42 45 45 45 46 45 43 43 41 37 35 33 30 29 29 28 28 28 27 27 27 25 23 21 19 19
20 20 21 24 26 28 31 33 35 36 36 32 31 31 29 27 26 25 26 28 28 27 28 28 30 31 28 24 24 28 30 30 30 31 30 31 34 38 44 47 47 48 47 45 44 43 40 38 35 30 29 30 28 28 29 28 28 28 26 24 22 20 19
17 16 17 19 23 27 28 29 29 31 31 29 28 27 25 24 24 23 24 26 26 26 27 27 27 27 23 21 23 26 27 27 29 28 27 28 30 35 41 46 49 49 48 46 46 45 42 39 36 31 29 29 28 28 28 27 26 27 26 24 21 19 19
15 15 15 17 20 23 27 29 29 29 28 27 26 26 25 25 24 23 23 24 25 25 25 25 25 24 21 21 23 25 25 26 27 27 26 26 28 33 38 44 49 51 49 47 47 46 42 39 36 34 32 29 28 28 27 24 23 23 22 21 19 19 20
16 16 17 19 22 25 28 30 29 27 27 27 27 26 25 24 24 23 23 22 22 21 21 22 23 23 21 21 23 24 25 25 24 25 24 22 24 31 36 40 47 51 50 49 48 45 41 38 36 36 36 33 29 27 25 23 22 21 19 17 17 18 19
16 16 17 19 21 24 27 27 27 26 27 28 27 25 24 24 23 22 21 20 18 17 18 19 20 21 21 20 21 22 22 22 22 22 20 19 21 26 30 33 38 45 50 50 46 43 42 39 35 37 40 37 31 27 25 22 22 21 19 16 17 18 19
15 16 17 17 19 23 26 27 28 28 28 28 26 25 24 23 22 20 18 16 15 14 15 16 17 18 17 17 19 20 18 18 19 18 17 18 18 20 22 23 25 35 46 49 43 39 40 39 37 39 43 38 30 28 26 22 21 22 20 18 18 19 19
14 15 18 20 21 24 26 28 29 28 27 27 26 26 25 23 21 18 17 15 14 13 13 13 13 13 12 13 17 17 14 14 15 15 15 15 16 18 20 21 24 31 40 46 44 39 36 35 36 41 42 35 27 25 24 22 21 22 22 20 19 19 20
15 16 18 18 18 20 23 26 28 28 28 29 29 28 26 24 22 19 17 15 13 11 10 9 10 10 10 12 14 14 13 13 13 13 13 13 15 17 18 22 29 33 37 43 44 40 34 30 32 37 37 31 23 19 19 20 20 21 22 21 19 18 19
15 15 16 17 19 23 26 29 31 32 32 32 31 29 27 25 23 20 18 16 14 12 11 10 10 10 10 11 13 13 12 12 12 12 12 12 13 16 18 23 29 30 30 33 35 36 34 31 30 33 34 30 25 20 18 19 18 17 19 18 15 17 20
18 19 20 23 25 28 32 34 35 35 34 32 30 28 26 24 22 20 18 16 15 13 12 12 11 10 10 11 12 12 12 12 11 11 11 12 14 17 21 26 28 26 24 25 27 30 32 31 32 32 29 25 22 20 19 18 15 14 16 15 15 19 21
25 26 29 31 31 33 37 39 38 35 32 30 27 26 24 22 21 19 17 16 14 12 11 10 10 10 10 11 11 11 11 12 12 11 11 13 16 17 21 25 26 24 23 23 24 25 27 30 31 29 23 19 18 18 16 14 11 12 15 16 17 18 18
29 31 32 32 33 35 36 37 35 32 30 28 25 23 20 18 17 17 15 13 11 10 9 8 8 9 10 10 10 10 11 12 12 11 12 14 16 19 22 24 22 20 19 21 21 22 25 27 27 23 18 16 16 14 11 10 10 13 15 16 16 16 16
28 30 32 33 34 34 33 33 32 30 28 25 22 20 17 15 14 13 12 11 10 10 10 9 9 10 9 9 9 10 11 12 12 11 12 13 16 21 24 23 19 17 19 21 21 23 25 25 23 19 15 12 10 9 8 11 14 15 13 12 12 15 17
27 29 32 33 33 32 31 30 29 28 27 25 21 18 16 13 11 9 9 11 11 11 10 10 9 8 7 7 7 8 10 10 11 11 11 11 13 18 22 22 19 19 20 22 24 25 24 22 19 15 10 8 8 9 11 15 15 12 12 14 17 18 17
29 30 31 31 30 29 28 27 26 24 23 22 19 17 14 12 10 10 11 12 11 11 10 8 7 7 6 6 6 7 8 9 10 10 10 10 12 15 18 20 20 21 21 22 25 26 23 19 16 12 10 11 11 13 14 14 11 9 11 15 17 17 15
30 29 28 26 25 23 21 21 20 18 16 16 15 14 12 12 11 11 11 10 8 7 6 6 6 6 6 6 6 7 8 10 11 10 9 10 13 15 17 18 19 20 20 22 26 27 22 17 14 12 13 14 15 15 12 9 7 8 10 11 11 11 12
27 25 24 22 20 18 18 17 16 15 14 13 13 11 11 10 9 8 7 6 5 4 5 5 5 5 5 5 6 7 9 11 11 10 9 11 13 14 16 18 18 17 18 22 27 27 22 18 16 15 14 14 15 14 10 7 9 12 13 13 13 13 12
24 22 20 18 16 16 15 14 13 13 12 11 10 9 8 8 7 6 4 4 4 4 5 6 5 6 6 6 6 8 9 10 10 10 11 12 14 14 16 18 19 18 20 23 25 24 21 19 18 16 15 14 13 12 10 10 13 15 15 14 14 13 12
22 20 18 16 14 13 12 12 10 9 9 8 7 6 6 6 6 5 5 4 4 4 5 6 6 7 8 8 9 11 10 9 10 11 11 10 12 12 13 13 13 14 16 18 17 17 17 16 15 15 15 14 13 12 12 13 14 14 14 14 13 13 13
19 18 16 14 13 12 11 10 9 8 7 7 6 6 6 6 6 6 6 5 4 4 4 5 7 11 11 11 14 16 15 12 11 10 9 9 10 10 9 9 9 11 13 13 13 13 14 14 14 15 15 14 12 12 12 13 13 13 12 12 12 14 15